Cloud_Cover
3 2 17 68 56 98 100 66 5 5 5 5 5 5 9 100 98 51 95 100 100 100 84 2 40 100 2 3 0 0 0 0 0 0 0 0 0 0 0 0 0 0 0 0 0 0 0 0 0
0 1 7 73 54 88 96 91 6 5 5 5 4 4 31 91 4 3 5 100 100 100 84 22 54 12 0 0 0 0 0 0 0 0 0 0 0 0 0 0 0 0 0 0 0 0 0 0 0
0 0 1 6 99 100 88 21 5 5 29 5 5 5 58 76 4 1 5 84 100 99 37 29 21 6 0 0 0 0 0 0 0 0 0 0 0 0 0 0 0 0 0 0 0 0 1 0 0
0 33 14 98 84 4 5 5 5 61 83 5 5 5 35 88 5 5 5 42 94 5 1 0 0 0 0 4 5 4 0 0 0 0 0 0 0 0 0 0 0 0 2 0 0 2 0 0 0
0 53 62 77 100 5 5 5 5 96 19 5 5 5 5 5 5 5 5 49 62 51 5 5 0 0 0 31 66 0 0 0 0 0 0 0 0 0 0 0 0 0 1 0 0 0 0 0 0
0 7 82 100 64 4 1 5 5 5 5 8 5 5 5 57 37 71 5 97 100 74 5 5 1 0 14 100 31 0 0 0 0 0 0 0 0 0 0 0 0 0 0 0 1 3 2 1 1
0 75 99 100 68 0 0 5 5 26 5 5 5 5 5 69 100 77 8 9 47 5 5 5 5 4 98 100 4 2 0 0 0 0 0 0 0 0 0 0 0 4 3 4 3 0 2 1 0
0 0 10 100 37 0 0 5 5 5 5 5 5 3 5 100 76 27 5 5 5 5 5 5 5 100 100 100 0 0 0 0 0 0 0 0 0 0 0 1 0 0 0 0 0 0 5 0 0
0 0 73 15 100 5 5 5 5 5 4 5 5 5 25 100 34 5 5 1 5 5 5 14 100 100 100 5 2 5 5 0 0 0 0 0 0 0 0 2 0 0 0 0 0 3 3 0 0
0 0 100 100 27 5 5 5 0 1 3 5 5 5 63 100 29 5 5 14 32 5 20 100 100 95 6 4 1 1 0 0 0 0 0 0 0 0 0 4 1 0 2 0 2 0 2 5 1
0 0 0 0 0 5 5 3 0 0 5 5 22 33 5 5 5 5 28 100 100 7 95 100 77 5 5 3 0 0 5 2 0 0 0 0 0 0 2 5 5 3 2 4 4 2 5 3 0
0 0 0 0 0 5 5 5 0 1 5 5 52 5 5 5 5 5 16 96 5 66 100 100 56 5 1 0 0 1 4 2 3 0 1 1 5 5 5 5 5 5 5 5 1 5 5 0 0
5 5 1 2 5 5 5 5 5 5 5 5 6 56 5 46 18 75 72 17 5 96 100 74 5 5 5 5 5 1 0 5 2 0 3 5 5 5 5 5 39 5 5 5 5 5 5 0 0
5 5 5 5 46 35 5 18 5 5 3 5 42 53 100 78 100 100 90 85 52 98 23 5 5 5 5 5 5 0 0 1 4 5 7 26 14 10 6 44 24 13 5 5 5 5 0 0 0
32 5 5 43 28 61 5 18 5 5 5 5 94 100 58 99 100 100 93 6 57 12 5 5 5 5 5 5 0 4 5 5 5 30 89 100 50 49 5 83 15 5 5 5 5 5 5 0 0
35 80 91 5 17 57 100 98 5 81 5 5 48 100 100 100 100 96 6 5 5 8 5 5 65 100 14 5 5 5 5 5 43 100 100 99 22 5 8 85 6 5 5 5 5 5 5 0 5
98 100 39 5 100 100 94 100 37 97 12 5 63 100 100 100 93 85 42 100 100 98 22 100 100 28 5 5 6 5 5 6 50 100 100 46 24 8 95 65 34 5 5 5 5 5 5 5 3
100 50 74 95 84 91 100 100 5 7 8 52 100 100 49 12 60 100 100 100 85 55 98 100 89 38 5 52 80 26 6 31 97 100 93 53 9 75 100 25 62 6 36 5 14 5 5 5 1
100 87 100 100 5 50 100 100 100 3 100 100 100 100 100 100 100 13 5 6 56 30 70 99 78 23 28 58 61 64 66 100 100 100 83 97 56 98 8 76 81 41 11 5 5 5 5 5 2
100 100 100 89 100 91 100 100 100 99 6 100 100 100 100 100 100 88 98 7 5 7 12 95 59 91 96 100 99 88 100 100 100 93 100 60 75 36 40 92 74 36 5 5 51 5 5 5 5
100 100 100 100 22 98 100 100 100 100 61 100 100 100 33 90 99 93 11 12 51 94 93 82 100 100 100 100 100 100 100 100 100 100 80 47 48 48 100 34 58 5 5 5 83 65 5 85 98
100 100 100 100 100 100 100 100 100 100 82 99 100 100 84 25 91 100 100 100 100 100 100 100 100 100 100 100 100 100 100 99 100 100 92 77 51 61 100 56 7 5 5 5 74 44 7 100 100
100 100 100 100 100 100 100 77 77 90 100 99 12 100 100 100 100 100 100 100 100 100 100 100 100 100 100 100 100 100 100 100 99 96 98 95 65 100 100 12 54 7 5 5 99 9 26 97 89
100 100 100 100 100 100 100 100 100 33 64 81 21 69 100 100 95 72 89 100 100 100 100 100 100 100 100 100 100 100 100 100 99 74 95 98 100 83 76 4 5 38 5 17 87 5 51 68 81
100 100 100 100 100 100 66 73 86 9 93 98 100 100 100 100 100 90 65 99 100 100 100 100 100 100 100 100 100 100 100 99 93 96 95 100 100 61 11 5 5 5 35 71 82 7 6 98 100
94 100 100 100 100 98 68 19 15 5 1 1 7 63 100 100 92 51 70 100 100 100 100 100 100 100 100 99 83 100 100 97 100 100 90 94 96 54 5 5 5 45 60 88 25 5 59 100 100
95 14 65 12 5 5 88 95 89 24 5 5 5 5 7 5 5 5 8 99 100 100 100 100 100 100 100 100 95 100 100 100 97 79 100 88 100 97 5 5 5 65 79 5 5 72 81 99 96
60 14 5 6 5 7 5 5 5 5 7 5 5 5 5 5 5 5 12 87 100 100 100 100 100 99 98 100 100 95 98 99 31 86 100 100 100 86 5 5 5 78 5 5 75 96 98 78 98
19 7 4 1 2 0 0 26 2 7 13 27 5 9 11 5 7 66 100 100 100 100 100 100 100 100 100 69 8 64 55 54 100 100 100 100 100 30 5 5 56 21 5 60 18 97 88 5 100
5 0 0 0 3 5 5 1 36 6 12 4 6 100 68 100 100 100 100 100 100 100 100 100 100 51 6 5 5 37 94 83 100 100 100 100 100 10 5 7 69 5 6 69 24 100 81 71 100